Wind_Speed
35 35 35 35 36 35 34 33 32 31 30 28 26 24 22 20 19 19 18 18 17 16 16 17 17 17 17 16 16 16 16 16 16 14 13 13 12 12 12 12 13 13
34 35 35 36 36 36 34 34 33 32 31 29 27 25 23 21 20 20 20 19 19 18 17 17 18 18 18 18 17 17 17 17 17 16 15 14 13 13 13 13 13 13
35 35 35 36 36 36 34 33 32 32 32 30 28 26 25 23 22 21 21 21 20 20 18 18 19 19 19 19 18 18 18 18 18 17 17 16 15 15 14 14 14 14
37 36 35 36 36 36 34 33 32 32 32 31 29 28 26 25 24 23 22 22 21 20 20 19 20 20 20 20 19 19 19 19 19 18 18 17 17 16 15 15 15 15
38 37 36 36 36 37 36 34 33 31 31 31 30 29 28 27 26 24 23 23 22 21 20 20 21 22 21 21 21 21 20 20 20 19 19 18 17 17 16 16 16 16
40 38 37 36 36 37 37 36 34 32 31 31 30 30 30 29 28 26 25 24 22 22 20 20 21 21 22 22 22 22 21 21 21 21 21 20 19 18 18 17 17 17
41 39 37 36 36 36 37 36 35 34 33 32 31 30 30 30 30 28 27 26 24 23 22 20 20 20 21 22 22 22 21 21 21 21 21 21 20 20 19 19 19 18
41 39 38 36 36 36 36 36 36 35 34 33 33 32 31 31 31 30 29 28 27 26 24 22 21 20 21 21 22 22 21 21 20 20 21 21 21 21 20 20 20 20
41 39 38 36 36 35 35 35 35 34 34 34 34 33 31 31 30 30 30 29 29 28 27 25 23 22 22 22 22 22 22 21 21 21 21 22 22 21 21 21 21 21
41 40 38 37 36 35 34 33 33 33 33 34 34 33 32 31 30 30 30 30 29 29 28 27 26 25 24 24 23 24 23 23 22 22 23 23 23 22 22 22 22 22
42 41 40 38 36 35 33 31 31 32 32 33 33 33 32 32 31 31 30 30 29 29 29 28 27 26 25 25 24 24 24 23 23 23 23 24 24 24 23 24 24 23
44 42 40 38 37 35 33 32 31 31 32 32 32 32 32 32 32 32 31 30 29 28 28 28 27 27 27 26 25 25 24 24 23 23 23 24 24 25 25 25 25 25
44 43 41 39 37 34 32 31 31 31 31 31 31 32 32 32 32 32 32 31 30 29 28 28 28 28 28 27 27 26 26 26 25 25 24 25 25 25 25 26 26 26
44 42 41 38 36 34 32 31 30 30 30 30 31 32 32 32 32 32 32 31 31 30 30 29 30 30 29 29 28 28 27 27 26 26 26 26 26 26 26 26 26 26
44 42 41 39 36 34 32 31 30 29 29 30 31 32 32 32 32 32 32 32 33 32 32 32 32 31 31 30 29 29 28 28 27 27 27 27 28 28 27 27 27 27
44 43 41 39 37 35 33 32 30 29 29 30 30 31 32 32 32 32 33 33 33 33 33 34 33 32 31 31 30 29 29 28 28 28 28 29 29 29 29 29 29 29
43 43 41 40 38 36 34 33 32 30 30 29 30 31 31 32 32 33 33 34 34 34 34 35 34 32 31 31 30 30 29 29 29 29 29 30 30 30 30 30 30 30
43 43 42 40 38 36 35 33 33 32 31 30 30 30 31 32 33 33 33 34 34 34 35 35 34 32 31 31 31 30 30 30 30 30 30 31 31 31 31 31 31 31
42 42 41 40 38 36 34 33 34 34 33 32 30 30 30 32 33 33 33 34 34 35 35 35 34 33 32 32 31 30 30 30 31 31 32 32 32 33 33 32 32 31
41 41 40 39 37 35 34 34 34 34 33 32 31 30 31 32 32 33 33 34 34 34 35 35 34 33 32 32 31 31 31 31 32 32 33 33 33 33 33 32 32 31
41 40 39 38 37 36 35 35 35 34 33 32 32 32 32 31 31 32 32 32 33 33 34 35 34 33 32 32 32 31 31 32 32 33 33 33 33 33 32 32 31 31
39 39 38 37 36 36 36 36 35 34 33 32 32 32 32 31 31 32 31 31 31 32 33 34 34 32 32 32 31 31 31 32 33 33 33 33 32 31 31 30 30 30
36 36 35 35 35 36 36 35 33 32 31 31 32 32 31 31 31 31 30 30 31 31 32 32 32 30 30 30 29 29 30 31 31 31 31 31 30 29 29 29 28 28
33 32 32 32 33 33 32 31 30 30 29 29 30 30 29 29 28 28 28 28 28 29 29 30 29 27 27 27 27 27 28 29 29 29 29 30 29 28 27 27 27 26
30 30 30 30 30 30 28 28 27 27 27 28 29 29 27 27 27 27 27 26 26 26 26 27 26 23 22 23 23 23 24 25 25 26 27 28 27 26 25 25 25 24
30 30 30 30 29 28 27 26 26 26 27 29 29 28 27 28 28 29 28 26 25 25 24 25 24 20 18 19 19 19 20 21 23 24 25 24 24 24 23 23 23 23
Wind_Direction
231 232 233 235 236 235 235 234 235 235 237 238 237 237 237 237 237 236 236 236 236 238 240 243 244 245 247 247 248 250 253 255 255 254 252 253 255 255 256 256 254 255
230 232 234 236 237 237 236 235 235 235 237 239 239 240 240 240 240 240 242 243 243 244 244 244 243 243 245 246 248 249 252 256 257 256 256 257 259 259 257 258 257 258
230 232 234 236 237 237 236 235 235 236 237 239 240 241 241 241 242 243 244 246 248 250 249 246 243 242 243 245 247 248 250 254 256 258 258 259 261 262 261 259 258 259
229 232 234 235 236 237 237 236 236 236 237 237 238 239 240 241 243 243 245 246 248 250 250 247 243 241 242 244 246 248 250 252 255 257 258 259 260 262 263 262 261 261
230 231 233 235 236 237 237 237 237 237 237 237 237 238 239 240 241 241 243 245 245 246 246 245 242 241 241 242 244 248 250 252 253 255 258 259 260 262 264 264 264 263
230 231 233 234 235 236 237 237 238 238 238 238 238 238 239 239 240 240 241 242 242 242 242 242 241 241 241 241 242 246 249 252 254 255 257 260 261 262 263 264 265 265
230 231 232 234 235 236 237 238 239 240 240 241 241 241 240 240 240 240 240 241 241 240 240 240 241 242 243 243 243 245 248 251 254 255 257 259 261 263 263 264 265 266
231 232 232 234 235 236 237 238 240 241 242 243 244 242 242 241 241 241 241 241 241 240 239 240 241 243 244 244 244 245 247 250 253 256 258 260 261 263 265 266 266 267
231 232 233 234 235 237 238 239 240 241 243 243 243 243 243 242 241 241 241 241 241 240 240 240 241 243 244 245 245 246 247 250 253 256 259 261 263 265 267 268 268 269
231 232 233 234 235 237 238 239 240 242 243 243 243 243 242 241 241 242 241 241 240 240 239 240 240 242 244 245 247 249 250 252 254 256 258 261 264 267 269 270 270 269
230 231 232 233 234 236 237 239 240 242 243 243 243 243 241 241 241 242 243 242 240 239 239 239 239 241 243 245 247 250 252 254 255 256 258 261 263 266 268 269 270 270
230 231 232 233 234 235 237 238 240 241 242 243 243 243 243 242 242 243 244 243 240 239 239 240 240 242 243 245 247 249 252 254 256 258 260 262 264 266 268 270 270 270
230 231 232 233 233 235 236 238 239 241 242 243 244 245 244 244 244 244 245 244 242 241 240 240 242 243 245 246 247 249 251 253 256 260 262 264 266 267 270 271 271 271
231 232 233 233 234 234 235 236 237 239 241 243 245 245 245 244 245 245 246 246 246 244 243 244 245 246 246 247 248 249 251 254 256 259 262 265 267 269 271 272 272 272
231 232 233 233 234 234 234 234 235 237 239 242 244 245 244 244 245 246 247 247 247 247 247 247 248 248 247 248 249 250 252 254 257 260 263 266 269 271 272 273 274 274
230 231 232 233 233 234 234 233 234 236 238 240 243 244 244 244 244 245 245 246 247 247 248 249 249 248 248 249 250 251 253 256 258 261 263 266 269 271 272 273 275 276
230 231 232 232 233 234 234 234 234 235 237 240 243 244 244 245 245 244 244 245 246 247 248 249 249 248 248 250 252 253 255 258 259 262 264 266 268 270 271 273 275 277
229 230 231 232 233 234 235 236 236 236 238 239 242 243 244 245 245 244 244 244 246 247 247 248 248 248 249 250 252 254 256 258 261 263 265 267 269 271 273 275 277 278
230 231 232 233 234 235 236 237 237 238 238 239 241 243 244 245 245 244 244 245 246 247 247 248 248 248 249 250 252 253 255 258 260 263 266 268 270 273 275 276 278 280
231 232 234 235 235 236 237 238 238 239 239 239 241 242 243 245 245 244 244 245 246 248 249 250 250 249 250 251 252 253 255 258 261 263 266 269 271 273 275 277 278 280
232 233 235 236 236 237 238 239 239 240 240 241 242 243 244 244 245 246 246 246 247 248 250 251 251 250 251 252 253 254 257 259 262 264 266 268 270 272 274 276 278 280
232 233 235 236 237 238 239 239 240 241 242 243 243 245 246 246 247 247 247 247 248 249 251 251 251 251 253 253 254 256 259 260 262 264 266 267 269 271 273 275 278 279
233 234 235 236 237 238 239 240 241 242 243 243 244 245 245 246 247 247 247 247 248 249 250 250 250 251 252 254 255 257 259 261 263 265 267 268 270 272 274 275 277 279
233 233 234 235 236 237 238 239 241 241 242 243 244 245 246 246 247 248 248 249 249 249 250 251 251 251 252 254 255 257 259 261 263 266 267 268 270 272 274 276 278 280
234 233 234 235 235 237 238 239 239 240 241 243 244 245 246 247 249 250 250 250 251 252 253 255 256 255 253 254 255 257 259 262 264 266 267 269 272 274 276 279 281 283
235 235 236 237 237 239 240 240 241 242 242 244 245 246 247 249 249 251 252 253 254 256 256 258 260 258 256 256 256 257 259 262 264 265 268 272 275 278 280 282 284 287
Height
1545 1547 1550 1552 1554 1557 1559 1561 1564 1566 1568 1570 1572 1574 1576 1579 1581 1582 1584 1585 1586 1587 1589 1590 1590 1592 1593 1593 1594 1595 1596 1597 1598 1598 1599 1599 1600 1600 1601 1601 1602 1602
1542 1545 1547 1550 1552 1554 1556 1559 1561 1564 1566 1568 1570 1573 1575 1577 1579 1580 1582 1583 1585 1586 1587 1588 1589 1590 1591 1592 1593 1594 1595 1596 1596 1597 1598 1598 1599 1599 1599 1600 1600 1601
1540 1542 1545 1547 1549 1552 1554 1556 1559 1561 1564 1566 1568 1571 1573 1575 1577 1578 1580 1581 1583 1584 1585 1586 1587 1588 1589 1590 1591 1592 1593 1594 1595 1596 1597 1597 1598 1598 1598 1599 1599 1600
1537 1539 1542 1544 1547 1549 1552 1554 1556 1558 1561 1563 1566 1568 1570 1572 1574 1576 1578 1579 1581 1582 1583 1584 1585 1586 1587 1588 1589 1590 1591 1592 1594 1595 1595 1596 1596 1597 1597 1598 1598 1598
1534 1537 1539 1542 1544 1547 1550 1551 1554 1556 1558 1561 1563 1566 1568 1570 1572 1573 1575 1577 1578 1580 1581 1582 1583 1584 1585 1586 1587 1588 1589 1591 1592 1593 1594 1594 1595 1595 1596 1596 1596 1597
1532 1534 1537 1540 1542 1545 1547 1549 1551 1553 1556 1558 1560 1563 1565 1567 1569 1571 1573 1575 1576 1578 1579 1580 1581 1582 1583 1584 1585 1586 1588 1589 1590 1591 1592 1593 1594 1594 1595 1595 1595 1596
1529 1531 1534 1537 1539 1542 1544 1546 1549 1551 1553 1556 1558 1560 1562 1564 1566 1568 1570 1572 1574 1575 1576 1578 1579 1580 1581 1582 1583 1584 1586 1587 1588 1589 1590 1591 1592 1593 1593 1593 1594 1594
1526 1529 1532 1534 1537 1539 1541 1543 1546 1548 1550 1553 1555 1557 1559 1561 1563 1565 1567 1569 1571 1572 1574 1575 1576 1577 1579 1580 1581 1582 1584 1585 1586 1587 1588 1589 1590 1590 1591 1592 1592 1592
1523 1525 1528 1531 1533 1535 1538 1540 1542 1545 1548 1550 1552 1554 1556 1558 1560 1562 1564 1566 1568 1569 1571 1572 1574 1575 1576 1578 1579 1580 1582 1583 1584 1585 1586 1587 1588 1588 1589 1589 1590 1590
1519 1522 1525 1527 1530 1532 1534 1537 1540 1542 1544 1546 1549 1551 1553 1555 1557 1559 1561 1563 1564 1566 1568 1569 1571 1572 1574 1575 1576 1578 1579 1581 1582 1583 1584 1585 1585 1586 1586 1587 1587 1588
1516 1519 1522 1524 1526 1529 1531 1534 1537 1539 1541 1543 1545 1548 1549 1552 1554 1555 1557 1559 1561 1563 1564 1566 1568 1569 1571 1572 1574 1575 1577 1578 1579 1581 1582 1582 1583 1584 1584 1584 1585 1585
1513 1515 1518 1520 1523 1526 1529 1531 1534 1536 1538 1540 1542 1544 1546 1548 1550 1552 1554 1556 1558 1560 1561 1563 1565 1566 1567 1569 1571 1572 1574 1575 1577 1578 1579 1580 1580 1581 1581 1582 1582 1582
1509 1512 1515 1517 1520 1523 1526 1528 1531 1533 1535 1537 1539 1541 1543 1545 1547 1548 1550 1552 1554 1556 1558 1560 1561 1563 1564 1566 1568 1569 1571 1572 1573 1575 1576 1577 1577 1578 1579 1579 1579 1580
1506 1509 1512 1515 1518 1520 1523 1525 1527 1530 1532 1534 1536 1538 1540 1542 1543 1545 1547 1549 1551 1553 1555 1556 1558 1559 1561 1563 1564 1566 1567 1569 1570 1572 1572 1574 1574 1575 1576 1576 1576 1577
1503 1506 1509 1512 1515 1517 1519 1522 1524 1526 1528 1531 1532 1534 1536 1538 1540 1542 1544 1545 1547 1549 1551 1553 1554 1556 1557 1559 1561 1563 1564 1566 1567 1568 1569 1570 1571 1572 1572 1573 1573 1574
1500 1503 1506 1509 1511 1513 1516 1518 1521 1523 1525 1527 1529 1531 1533 1535 1537 1539 1540 1541 1543 1545 1547 1548 1550 1552 1554 1556 1558 1559 1561 1563 1564 1565 1566 1567 1568 1568 1569 1569 1570 1571
1497 1500 1503 1505 1508 1510 1513 1515 1517 1519 1521 1523 1525 1527 1529 1531 1533 1534 1536 1537 1539 1541 1542 1544 1546 1548 1550 1552 1554 1556 1558 1559 1560 1561 1563 1563 1564 1565 1565 1566 1567 1567
1493 1497 1499 1502 1505 1507 1510 1512 1514 1516 1518 1520 1521 1523 1526 1527 1529 1530 1532 1534 1535 1536 1538 1539 1541 1544 1547 1549 1550 1552 1554 1555 1556 1557 1558 1559 1560 1560 1561 1562 1563 1563
1490 1493 1496 1499 1501 1504 1507 1509 1511 1512 1514 1516 1518 1520 1522 1523 1525 1526 1528 1530 1531 1532 1534 1535 1538 1540 1543 1545 1547 1548 1550 1551 1552 1553 1554 1555 1556 1556 1557 1558 1558 1559
1488 1490 1493 1496 1498 1501 1503 1505 1507 1509 1510 1513 1515 1517 1518 1519 1521 1523 1524 1526 1527 1528 1530 1532 1534 1536 1539 1541 1543 1545 1546 1547 1548 1549 1550 1550 1551 1552 1553 1554 1554 1555
1484 1487 1490 1492 1495 1498 1499 1501 1503 1505 1507 1510 1511 1513 1514 1516 1517 1519 1520 1522 1524 1525 1527 1528 1530 1532 1535 1537 1539 1541 1542 1543 1544 1545 1546 1546 1547 1548 1549 1550 1550 1551
1481 1484 1486 1489 1492 1494 1495 1497 1500 1502 1504 1506 1508 1509 1511 1512 1514 1515 1517 1519 1520 1522 1523 1524 1526 1529 1531 1533 1535 1537 1538 1539 1540 1541 1542 1542 1543 1545 1545 1546 1547 1548
1478 1481 1483 1486 1488 1490 1492 1494 1496 1498 1501 1503 1504 1506 1507 1508 1510 1511 1513 1515 1516 1518 1519 1520 1522 1525 1528 1529 1531 1533 1534 1535 1536 1537 1537 1538 1539 1541 1542 1542 1543 1544
1475 1478 1480 1483 1485 1487 1489 1491 1493 1495 1497 1499 1500 1502 1503 1505 1507 1508 1510 1511 1512 1514 1515 1516 1518 1521 1524 1525 1527 1529 1530 1531 1532 1532 1533 1534 1535 1536 1537 1538 1539 1540
1472 1475 1477 1479 1482 1484 1486 1488 1490 1492 1494 1496 1497 1499 1501 1502 1504 1505 1507 1508 1509 1510 1512 1513 1515 1517 1520 1521 1523 1525 1526 1527 1528 1528 1528 1529 1531 1532 1533 1534 1535 1536
1470 1472 1474 1476 1478 1481 1483 1485 1487 1489 1491 1492 1494 1496 1498 1499 1500 1502 1503 1504 1506 1507 1509 1510 1511 1514 1516 1517 1519 1521 1522 1523 1524 1524 1524 1526 1527 1528 1529 1530 1531 1532